Terminal Aerodrome Forecast
Issued by NWS Greer, SC

Home | Current Version | Previous Version | Text Only | Print | Product List | Glossary On
Versions: 1 2 3 4 5 6 7 8 9 10 11 12 13 14 15 16 17 18 19 20 21 22 23 24 25 26 27 28 29 30 31 32 33 34 35 36 37 38 39 40 41 42 43 44 45 46 47 48 49 50
000
FTUS42 KGSP 271133
TAFCLT
TAF
KCLT 271133Z 2712/2812 32003KT P6SM SCT250
      TEMPO 2712/2713 5SM BR
     FM271600 01007KT P6SM FEW050
     FM272300 34006KT P6SM SCT250=

USA.gov is the U.S. government's official web portal to all federal, state and local government web resources and services.